Location: Borojevi?i
(45.0486°N, 16.2297°E)
Time: 17:48:32
(UTC+00:00)

Cosmos 2322 Rocket - Pass Details

Date: 08 August 2020
Orbit: 831 x 852 km, 71.0° (Epoch: 25 September)

Event Time Altitude Azimuth Distance (km) Brightness Sun altitude
Rises 20:13:48 0° 341° (NNW) 3,416 6.6 -18.3°
Reaches altitude 10° 20:16:40 10° 353° (N) 2,481 5.4 -18.7°
Maximum altitude 20:21:25 27° 50° (NE) 1,596 3.6 -19.2°
Enters shadow 20:23:56 20° 88° (E) 1,887 3.7 -19.5°
